Location: Unspecified
(0.0000°N, 0.0000°E)
Time: 20:36:04
(UTC+00:00)

Hubble Space Telescope - Pass Details

Date: 11 February 2018
Orbit: 537 x 541 km, 28.5° (Epoch: 23 February)

Event Time Altitude Azimuth Distance (km) Brightness Sun altitude
Exits shadow 05:41:43 - 240° (WSW) 2,509 3.7 -7.9°
Reaches altitude 10° 05:43:33 10° 241° (WSW) 1,787 3.0 -7.4°
Maximum altitude 05:47:41 87° 326° (NW) 540 0.8 -6.4°
Drops below altitude 10° 05:51:50 10° 59° (ENE) 1,784 4.1 -5.4°
Sets 05:54:05 0° 59° (ENE) 2,674 5.1 -4.9°
